User: anonymous   Login
Location: Podia
(1.5569°N, 32.3469°E)
Time: 15:22:36
(UTC+00:00)
Language:

STARLINK-1172 - Orbit

View from above orbital plane
View from above orbital plane
View from above satellite
View from above satellite

Ground track
Ground track

The orbit data is extracted from the following two-line orbital elements,

1 45074C 20006AG  21174.04722829  .00046916  00000-0  31451-2 0  1744
2 45074  53.0567  70.8871 0001442  95.5776 352.1744 15.06332392    10
Epoch (UTC): 23 June 2021 01:08:00
Eccentricity: 0.0001442
inclination: 53.0567°
perigee height: 546 km
apogee height: 548 km
right ascension of ascending node: 70.8871°
argument of perigee: 95.5776°
revolutions per day: 15.06332392
mean anomaly at epoch: 352.1744°
orbit number at epoch: 1

The dashed part of the orbit path shows where the satellite is in the earth's shadow,  

DLR